Location: Newark
(45.8667°N, 9.7333°E)
Time: 06:18:12
(UTC+00:00)

A-11 Canister half - Pass Details

Date: 23 January 2020
Orbit: 1517 x 1683 km, 47.2° (Epoch: 17 February)

Event Time Altitude Azimuth Distance (km) Brightness Sun altitude
Rises 23:04:20 0° 224° (SW) 4,738 - -62.9°
Reaches altitude 10° 23:07:30 10° 220° (SW) 3,736 - -63.0°
Maximum altitude 23:16:33 55° 146° (SE) 1,788 - -63.3°
Drops below altitude 10° 23:25:28 10° 72° (ENE) 3,682 - -63.5°
Sets 23:28:33 0° 69° (ENE) 4,666 - -63.5°
